QPF
0.02 0.02 0.01 0.01 0.00 0.00 0.00 0.00 0.00 0.00 0.00 0.00 0.01 0.02 0.03 0.05 0.04 0.04 0.06 0.07 0.09 0.12 0.13 0.14 0.19 0.19 0.14 0.10 0.07 0.05 0.03 0.03 0.02 0.01 0.01 0.00 0.01 0.01 0.01 0.00 0.00 0.00 0.00
0.02 0.01 0.01 0.01 0.00 0.00 0.00 0.00 0.00 0.01 0.01 0.02 0.05 0.07 0.08 0.07 0.08 0.08 0.07 0.09 0.10 0.11 0.12 0.13 0.15 0.19 0.22 0.19 0.14 0.10 0.09 0.07 0.05 0.04 0.03 0.01 0.01 0.00 0.00 0.01 0.00 0.00 0.00
0.01 0.01 0.01 0.01 0.01 0.01 0.01 0.03 0.04 0.07 0.08 0.11 0.11 0.12 0.11 0.10 0.09 0.08 0.09 0.10 0.10 0.12 0.13 0.14 0.14 0.17 0.21 0.22 0.22 0.20 0.19 0.17 0.15 0.12 0.08 0.04 0.02 0.01 0.01 0.00 0.00 0.00 0.00
0.01 0.01 0.01 0.01 0.01 0.01 0.02 0.05 0.10 0.16 0.19 0.21 0.19 0.18 0.14 0.11 0.09 0.08 0.09 0.09 0.08 0.08 0.09 0.10 0.12 0.15 0.20 0.25 0.30 0.30 0.32 0.34 0.31 0.24 0.15 0.09 0.04 0.02 0.01 0.00 0.00 0.00 0.00
0.01 0.02 0.03 0.03 0.03 0.04 0.06 0.11 0.20 0.25 0.27 0.29 0.27 0.23 0.17 0.11 0.08 0.07 0.07 0.06 0.06 0.06 0.07 0.07 0.09 0.11 0.14 0.19 0.29 0.33 0.39 0.42 0.40 0.34 0.26 0.17 0.09 0.03 0.01 0.01 0.00 0.00 0.00
0.03 0.05 0.07 0.08 0.08 0.10 0.12 0.18 0.28 0.37 0.38 0.31 0.22 0.16 0.12 0.08 0.06 0.05 0.04 0.04 0.04 0.04 0.04 0.05 0.05 0.07 0.08 0.11 0.17 0.23 0.32 0.39 0.41 0.38 0.33 0.25 0.16 0.08 0.05 0.03 0.01 0.00 0.00
0.09 0.13 0.16 0.18 0.17 0.18 0.21 0.25 0.29 0.29 0.25 0.18 0.12 0.10 0.08 0.05 0.03 0.02 0.02 0.02 0.02 0.02 0.03 0.03 0.02 0.03 0.04 0.06 0.10 0.13 0.19 0.30 0.34 0.37 0.35 0.28 0.19 0.13 0.09 0.07 0.05 0.02 0.01
0.12 0.22 0.29 0.32 0.29 0.27 0.26 0.23 0.20 0.16 0.12 0.10 0.08 0.06 0.05 0.03 0.02 0.01 0.01 0.01 0.01 0.01 0.01 0.01 0.01 0.02 0.03 0.03 0.04 0.07 0.12 0.19 0.24 0.28 0.28 0.24 0.20 0.15 0.11 0.10 0.10 0.07 0.03
0.12 0.22 0.33 0.41 0.41 0.31 0.23 0.19 0.15 0.12 0.09 0.07 0.05 0.04 0.03 0.02 0.01 0.01 0.00 0.00 0.00 0.00 0.00 0.00 0.01 0.01 0.02 0.03 0.03 0.04 0.07 0.12 0.17 0.19 0.20 0.19 0.19 0.17 0.14 0.12 0.11 0.11 0.08
0.12 0.20 0.30 0.39 0.41 0.38 0.29 0.18 0.12 0.09 0.08 0.07 0.06 0.04 0.03 0.02 0.01 0.00 0.00 0.00 0.00 0.00 0.00 0.00 0.00 0.00 0.01 0.01 0.01 0.01 0.03 0.04 0.06 0.07 0.09 0.13 0.18 0.20 0.18 0.16 0.15 0.14 0.12
0.09 0.16 0.25 0.32 0.30 0.25 0.21 0.15 0.10 0.08 0.08 0.07 0.05 0.04 0.03 0.03 0.02 0.01 0.00 0.00 0.00 0.00 0.00 0.00 0.00 0.00 0.00 0.00 0.01 0.01 0.01 0.02 0.03 0.04 0.06 0.08 0.13 0.16 0.17 0.16 0.15 0.16 0.15
0.08 0.11 0.16 0.16 0.17 0.16 0.13 0.12 0.11 0.10 0.10 0.08 0.06 0.05 0.04 0.04 0.03 0.02 0.01 0.01 0.00 0.00 0.00 0.00 0.00 0.00 0.00 0.00 0.00 0.00 0.00 0.01 0.01 0.02 0.03 0.06 0.08 0.11 0.15 0.17 0.18 0.19 0.19
0.09 0.09 0.09 0.09 0.08 0.09 0.09 0.11 0.12 0.14 0.16 0.16 0.13 0.09 0.06 0.06 0.05 0.03 0.02 0.01 0.01 0.01 0.01 0.01 0.01 0.01 0.00 0.00 0.00 0.00 0.00 0.00 0.00 0.01 0.02 0.02 0.04 0.07 0.11 0.15 0.21 0.25 0.25
0.09 0.08 0.08 0.07 0.07 0.07 0.07 0.08 0.12 0.18 0.21 0.22 0.22 0.18 0.13 0.11 0.09 0.06 0.05 0.03 0.02 0.02 0.02 0.02 0.02 0.02 0.01 0.01 0.00 0.00 0.00 0.00 0.00 0.01 0.01 0.02 0.03 0.06 0.08 0.11 0.16 0.22 0.27
0.07 0.07 0.07 0.07 0.07 0.07 0.06 0.06 0.09 0.15 0.22 0.26 0.26 0.24 0.20 0.15 0.10 0.08 0.07 0.06 0.05 0.04 0.02 0.02 0.03 0.03 0.03 0.03 0.02 0.01 0.01 0.00 0.00 0.01 0.01 0.01 0.02 0.03 0.06 0.09 0.13 0.16 0.20
0.05 0.04 0.05 0.05 0.06 0.07 0.06 0.06 0.07 0.12 0.16 0.19 0.21 0.22 0.16 0.11 0.09 0.08 0.07 0.06 0.05 0.05 0.03 0.03 0.03 0.03 0.04 0.05 0.05 0.03 0.01 0.01 0.00 0.01 0.01 0.01 0.01 0.02 0.02 0.04 0.07 0.10 0.12
0.05 0.03 0.02 0.03 0.04 0.06 0.06 0.05 0.06 0.09 0.10 0.11 0.12 0.12 0.09 0.08 0.08 0.07 0.05 0.05 0.04 0.04 0.04 0.03 0.03 0.03 0.05 0.05 0.05 0.05 0.03 0.02 0.01 0.01 0.00 0.00 0.00 0.01 0.01 0.02 0.03 0.04 0.05
0.03 0.02 0.01 0.02 0.02 0.02 0.02 0.02 0.02 0.02 0.03 0.04 0.05 0.05 0.05 0.05 0.05 0.05 0.04 0.03 0.03 0.03 0.03 0.03 0.03 0.02 0.04 0.06 0.05 0.08 0.06 0.04 0.03 0.01 0.01 0.01 0.00 0.01 0.01 0.00 0.01 0.01 0.02
0.01 0.01 0.00 0.00 0.01 0.01 0.01 0.01 0.01 0.00 0.00 0.01 0.01 0.01 0.01 0.02 0.02 0.03 0.02 0.02 0.02 0.01 0.01 0.02 0.02 0.02 0.03 0.05 0.05 0.07 0.05 0.07 0.06 0.03 0.03 0.01 0.01 0.02 0.01 0.01 0.01 0.01 0.01
0.00 0.00 0.00 0.00 0.00 0.00 0.00 0.00 0.00 0.00 0.00 0.00 0.00 0.00 0.00 0.01 0.01 0.01 0.01 0.01 0.01 0.00 0.00 0.01 0.01 0.01 0.02 0.04 0.04 0.06 0.07 0.08 0.07 0.04 0.03 0.03 0.02 0.02 0.02 0.01 0.01 0.01 0.01
0.00 0.00 0.00 0.00 0.00 0.00 0.00 0.00 0.00 0.00 0.00 0.00 0.00 0.00 0.00 0.00 0.00 0.00 0.00 0.00 0.00 0.00 0.00 0.00 0.01 0.01 0.01 0.03 0.05 0.06 0.05 0.07 0.07 0.07 0.05 0.04 0.04 0.02 0.01 0.01 0.00 0.01 0.01
0.00 0.00 0.00 0.00 0.00 0.00 0.00 0.00 0.00 0.00 0.00 0.00 0.00 0.00 0.00 0.00 0.00 0.00 0.00 0.00 0.00 0.00 0.00 0.00 0.01 0.01 0.01 0.02 0.03 0.06 0.07 0.07 0.06 0.07 0.05 0.04 0.04 0.02 0.01 0.01 0.01 0.01 0.00
0.00 0.00 0.00 0.00 0.00 0.00 0.00 0.00 0.00 0.00 0.00 0.00 0.00 0.00 0.00 0.00 0.00 0.00 0.00 0.00 0.00 0.00 0.00 0.00 0.00 0.01 0.01 0.02 0.03 0.05 0.06 0.06 0.04 0.05 0.04 0.03 0.03 0.02 0.01 0.01 0.00 0.00 0.00
0.00 0.00 0.00 0.00 0.00 0.00 0.00 0.00 0.00 0.00 0.00 0.00 0.00 0.00 0.00 0.00 0.00 0.00 0.00 0.00 0.00 0.00 0.00 0.00 0.00 0.01 0.01 0.02 0.03 0.04 0.04 0.04 0.03 0.03 0.02 0.02 0.02 0.01 0.01 0.01 0.01 0.01 0.01
0.00 0.00 0.00 0.00 0.00 0.00 0.00 0.00 0.00 0.00 0.00 0.00 0.00 0.00 0.00 0.00 0.00 0.00 0.00 0.00 0.00 0.00 0.00 0.00 0.00 0.00 0.01 0.01 0.02 0.03 0.04 0.04 0.05 0.04 0.03 0.02 0.02 0.01 0.01 0.02 0.03 0.02 0.01
0.00 0.00 0.00 0.00 0.00 0.00 0.00 0.00 0.00 0.00 0.00 0.00 0.00 0.00 0.00 0.00 0.00 0.00 0.00 0.00 0.00 0.00 0.00 0.00 0.00 0.00 0.00 0.01 0.02 0.02 0.03 0.04 0.06 0.05 0.04 0.03 0.03 0.02 0.02 0.03 0.03 0.03 0.02
MSLP
1009.88 1009.14 1008.45 1007.88 1007.47 1007.25 1007.26 1007.49 1007.92 1008.52 1009.22 1009.97 1010.70 1011.37 1011.93 1012.36 1012.66 1012.85 1012.96 1013.04 1013.12 1013.25 1013.46 1013.75 1014.12 1014.56 1015.05 1015.54 1016.00 1016.43 1016.80 1017.12 1017.39 1017.62 1017.82 1018.00 1018.15 1018.27 1018.33 1018.34 1018.29 1018.18 1018.05
1009.86 1008.96 1008.14 1007.44 1006.91 1006.60 1006.55 1006.76 1007.22 1007.87 1008.67 1009.54 1010.39 1011.17 1011.81 1012.29 1012.61 1012.77 1012.84 1012.86 1012.89 1012.97 1013.15 1013.43 1013.82 1014.28 1014.78 1015.30 1015.78 1016.22 1016.60 1016.92 1017.20 1017.45 1017.68 1017.91 1018.11 1018.29 1018.42 1018.48 1018.47 1018.39 1018.28
1009.80 1008.81 1007.89 1007.10 1006.51 1006.15 1006.07 1006.27 1006.74 1007.45 1008.32 1009.26 1010.20 1011.05 1011.75 1012.26 1012.58 1012.72 1012.75 1012.72 1012.70 1012.73 1012.87 1013.13 1013.50 1013.95 1014.45 1014.96 1015.44 1015.87 1016.24 1016.57 1016.86 1017.14 1017.42 1017.70 1017.97 1018.22 1018.42 1018.55 1018.59 1018.56 1018.47
1009.76 1008.73 1007.78 1006.97 1006.36 1005.99 1005.91 1006.11 1006.60 1007.32 1008.22 1009.19 1010.16 1011.03 1011.75 1012.26 1012.57 1012.70 1012.69 1012.62 1012.55 1012.54 1012.64 1012.85 1013.18 1013.60 1014.06 1014.54 1014.99 1015.41 1015.77 1016.09 1016.40 1016.71 1017.03 1017.37 1017.71 1018.03 1018.31 1018.50 1018.61 1018.63 1018.58
1009.80 1008.78 1007.86 1007.09 1006.51 1006.18 1006.11 1006.32 1006.80 1007.50 1008.37 1009.32 1010.25 1011.10 1011.79 1012.29 1012.57 1012.68 1012.65 1012.55 1012.45 1012.40 1012.45 1012.62 1012.90 1013.26 1013.67 1014.10 1014.51 1014.88 1015.22 1015.54 1015.86 1016.19 1016.55 1016.94 1017.33 1017.71 1018.05 1018.31 1018.47 1018.54 1018.53
1009.94 1008.98 1008.15 1007.46 1006.96 1006.68 1006.64 1006.84 1007.29 1007.93 1008.72 1009.58 1010.43 1011.21 1011.84 1012.29 1012.55 1012.64 1012.60 1012.49 1012.38 1012.31 1012.33 1012.45 1012.67 1012.97 1013.31 1013.68 1014.03 1014.37 1014.68 1014.98 1015.30 1015.64 1016.01 1016.42 1016.85 1017.26 1017.63 1017.94 1018.14 1018.26 1018.29
1010.19 1009.34 1008.62 1008.05 1007.65 1007.43 1007.41 1007.59 1007.97 1008.51 1009.17 1009.90 1010.62 1011.28 1011.83 1012.22 1012.45 1012.54 1012.52 1012.43 1012.33 1012.26 1012.26 1012.35 1012.52 1012.75 1013.03 1013.33 1013.63 1013.92 1014.19 1014.47 1014.77 1015.10 1015.46 1015.86 1016.29 1016.70 1017.08 1017.40 1017.63 1017.78 1017.86
1010.53 1009.81 1009.22 1008.78 1008.46 1008.30 1008.28 1008.41 1008.70 1009.11 1009.61 1010.17 1010.74 1011.27 1011.72 1012.06 1012.27 1012.37 1012.39 1012.34 1012.28 1012.24 1012.25 1012.32 1012.46 1012.64 1012.86 1013.10 1013.35 1013.59 1013.82 1014.07 1014.33 1014.63 1014.96 1015.32 1015.70 1016.08 1016.44 1016.74 1016.98 1017.16 1017.27
1010.93 1010.34 1009.88 1009.53 1009.29 1009.16 1009.13 1009.19 1009.36 1009.62 1009.95 1010.34 1010.74 1011.14 1011.50 1011.79 1012.00 1012.14 1012.21 1012.23 1012.24 1012.25 1012.28 1012.36 1012.47 1012.62 1012.80 1013.00 1013.19 1013.39 1013.60 1013.80 1014.02 1014.27 1014.54 1014.84 1015.15 1015.47 1015.77 1016.04 1016.27 1016.45 1016.60
1011.37 1010.89 1010.52 1010.25 1010.06 1009.93 1009.85 1009.84 1009.88 1009.99 1010.16 1010.37 1010.63 1010.91 1011.19 1011.45 1011.68 1011.86 1012.00 1012.11 1012.19 1012.26 1012.34 1012.43 1012.54 1012.67 1012.82 1012.99 1013.15 1013.33 1013.50 1013.67 1013.85 1014.04 1014.25 1014.47 1014.70 1014.93 1015.16 1015.38 1015.58 1015.76 1015.93
1011.86 1011.44 1011.13 1010.89 1010.70 1010.55 1010.42 1010.32 1010.25 1010.22 1010.24 1010.32 1010.46 1010.64 1010.86 1011.11 1011.35 1011.59 1011.80 1011.99 1012.14 1012.28 1012.40 1012.51 1012.63 1012.75 1012.89 1013.03 1013.18 1013.34 1013.49 1013.64 1013.79 1013.93 1014.07 1014.22 1014.36 1014.51 1014.66 1014.82 1014.99 1015.17 1015.36
1012.40 1012.01 1011.70 1011.46 1011.25 1011.06 1010.87 1010.68 1010.51 1010.38 1010.29 1010.26 1010.31 1010.43 1010.61 1010.85 1011.11 1011.39 1011.66 1011.90 1012.11 1012.29 1012.43 1012.56 1012.68 1012.80 1012.92 1013.06 1013.20 1013.35 1013.50 1013.65 1013.78 1013.89 1013.98 1014.07 1014.14 1014.22 1014.30 1014.41 1014.55 1014.72 1014.92
1013.02 1012.62 1012.29 1012.01 1011.75 1011.50 1011.26 1011.01 1010.77 1010.56 1010.40 1010.31 1010.29 1010.37 1010.52 1010.74 1011.01 1011.30 1011.59 1011.86 1012.09 1012.28 1012.43 1012.55 1012.66 1012.76 1012.88 1013.01 1013.15 1013.31 1013.47 1013.62 1013.75 1013.86 1013.93 1013.98 1014.01 1014.03 1014.07 1014.14 1014.24 1014.40 1014.61
1013.72 1013.28 1012.90 1012.57 1012.26 1011.97 1011.67 1011.38 1011.11 1010.86 1010.66 1010.53 1010.48 1010.52 1010.64 1010.84 1011.08 1011.35 1011.63 1011.88 1012.09 1012.25 1012.38 1012.47 1012.54 1012.62 1012.72 1012.84 1012.99 1013.16 1013.34 1013.51 1013.66 1013.78 1013.86 1013.89 1013.90 1013.90 1013.91 1013.95 1014.04 1014.19 1014.39
1014.49 1014.00 1013.57 1013.18 1012.82 1012.49 1012.17 1011.86 1011.58 1011.33 1011.13 1010.98 1010.91 1010.91 1010.99 1011.14 1011.33 1011.55 1011.76 1011.95 1012.10 1012.21 1012.28 1012.31 1012.34 1012.38 1012.45 1012.56 1012.70 1012.89 1013.09 1013.29 1013.47 1013.62 1013.72 1013.77 1013.78 1013.78 1013.78 1013.81 1013.89 1014.02 1014.21
1015.29 1014.74 1014.26 1013.82 1013.43 1013.08 1012.76 1012.47 1012.21 1011.98 1011.78 1011.64 1011.54 1011.51 1011.54 1011.62 1011.73 1011.86 1011.98 1012.08 1012.14 1012.17 1012.15 1012.12 1012.09 1012.08 1012.11 1012.19 1012.33 1012.52 1012.74 1012.97 1013.18 1013.36 1013.50 1013.58 1013.62 1013.64 1013.64 1013.67 1013.73 1013.85 1014.02
1016.03 1015.45 1014.93 1014.46 1014.06 1013.72 1013.43 1013.17 1012.94 1012.75 1012.58 1012.43 1012.32 1012.25 1012.21 1012.21 1012.22 1012.25 1012.26 1012.26 1012.22 1012.16 1012.06 1011.96 1011.86 1011.79 1011.78 1011.83 1011.95 1012.13 1012.35 1012.59 1012.83 1013.05 1013.22 1013.34 1013.41 1013.45 1013.47 1013.50 1013.55 1013.65 1013.79
1016.65 1016.05 1015.51 1015.05 1014.66 1014.34 1014.09 1013.88 1013.71 1013.56 1013.41 1013.28 1013.15 1013.04 1012.94 1012.85 1012.77 1012.69 1012.61 1012.50 1012.38 1012.22 1012.05 1011.88 1011.73 1011.61 1011.55 1011.55 1011.64 1011.79 1012.00 1012.25 1012.50 1012.73 1012.93 1013.08 1013.18 1013.24 1013.28 1013.30 1013.35 1013.42 1013.54
1017.09 1016.49 1015.95 1015.51 1015.16 1014.89 1014.69 1014.54 1014.42 1014.32 1014.21 1014.08 1013.94 1013.80 1013.64 1013.48 1013.33 1013.17 1013.00 1012.82 1012.62 1012.41 1012.19 1011.97 1011.76 1011.60 1011.49 1011.45 1011.49 1011.60 1011.78 1012.00 1012.24 1012.48 1012.69 1012.86 1012.98 1013.06 1013.10 1013.13 1013.16 1013.21 1013.28
1017.33 1016.74 1016.24 1015.83 1015.52 1015.31 1015.17 1015.08 1015.02 1014.96 1014.88 1014.77 1014.63 1014.46 1014.28 1014.08 1013.87 1013.66 1013.44 1013.22 1012.99 1012.75 1012.50 1012.25 1012.02 1011.81 1011.66 1011.57 1011.55 1011.61 1011.74 1011.91 1012.12 1012.34 1012.54 1012.71 1012.84 1012.92 1012.97 1013.00 1013.01 1013.04 1013.08
1017.39 1016.83 1016.37 1016.00 1015.74 1015.58 1015.50 1015.47 1015.46 1015.44 1015.40 1015.32 1015.19 1015.02 1014.83 1014.61 1014.39 1014.17 1013.94 1013.71 1013.48 1013.23 1012.98 1012.73 1012.48 1012.25 1012.05 1011.91 1011.83 1011.82 1011.88 1011.99 1012.15 1012.32 1012.50 1012.66 1012.78 1012.87 1012.92 1012.94 1012.95 1012.95 1012.96
1017.34 1016.82 1016.39 1016.07 1015.86 1015.74 1015.71 1015.72 1015.75 1015.78 1015.77 1015.72 1015.62 1015.47 1015.30 1015.10 1014.90 1014.69 1014.49 1014.28 1014.07 1013.85 1013.61 1013.36 1013.10 1012.85 1012.62 1012.42 1012.28 1012.20 1012.18 1012.22 1012.31 1012.43 1012.57 1012.71 1012.82 1012.91 1012.96 1012.97 1012.97 1012.96 1012.95
1017.24 1016.76 1016.37 1016.08 1015.90 1015.82 1015.81 1015.85 1015.92 1015.98 1016.01 1015.99 1015.94 1015.83 1015.70 1015.55 1015.39 1015.22 1015.06 1014.90 1014.72 1014.53 1014.32 1014.08 1013.82 1013.55 1013.29 1013.04 1012.83 1012.68 1012.58 1012.55 1012.57 1012.64 1012.73 1012.84 1012.94 1013.01 1013.06 1013.09 1013.08 1013.06 1013.04
1017.18 1016.72 1016.35 1016.08 1015.91 1015.84 1015.84 1015.90 1015.99 1016.07 1016.14 1016.17 1016.16 1016.12 1016.05 1015.95 1015.85 1015.74 1015.63 1015.51 1015.37 1015.21 1015.02 1014.80 1014.54 1014.26 1013.96 1013.68 1013.42 1013.20 1013.03 1012.93 1012.89 1012.90 1012.95 1013.03 1013.11 1013.18 1013.24 1013.26 1013.26 1013.25 1013.22
1017.17 1016.73 1016.37 1016.10 1015.92 1015.84 1015.84 1015.90 1015.99 1016.09 1016.19 1016.27 1016.32 1016.34 1016.33 1016.30 1016.26 1016.20 1016.14 1016.06 1015.96 1015.82 1015.65 1015.44 1015.18 1014.89 1014.58 1014.27 1013.97 1013.70 1013.49 1013.34 1013.25 1013.21 1013.23 1013.28 1013.34 1013.41 1013.47 1013.50 1013.52 1013.50 1013.48
1017.23 1016.80 1016.43 1016.14 1015.94 1015.82 1015.80 1015.84 1015.93 1016.05 1016.17 1016.30 1016.40 1016.48 1016.54 1016.57 1016.59 1016.58 1016.56 1016.51 1016.43 1016.31 1016.15 1015.94 1015.69 1015.41 1015.10 1014.78 1014.47 1014.18 1013.95 1013.76 1013.64 1013.58 1013.57 1013.60 1013.65 1013.71 1013.77 1013.81 1013.83 1013.83 1013.81
Thickness
5776 5785 5791 5795 5795 5794 5790 5787 5781 5777 5772 5764 5757 5752 5750 5749 5747 5747 5745 5743 5741 5739 5736 5733 5730 5727 5724 5721 5719 5715 5710 5707 5705 5700 5696 5696 5697 5698 5699 5699 5699 5699 5699
5765 5775 5783 5789 5793 5793 5792 5788 5783 5777 5771 5766 5759 5753 5749 5745 5743 5742 5740 5739 5738 5736 5734 5731 5728 5726 5722 5718 5715 5711 5706 5703 5701 5696 5690 5686 5687 5691 5694 5694 5695 5695 5694
5752 5764 5773 5781 5786 5789 5790 5787 5783 5776 5769 5762 5754 5747 5742 5739 5736 5736 5735 5735 5734 5732 5730 5729 5726 5724 5721 5717 5713 5710 5705 5699 5696 5695 5690 5683 5680 5683 5687 5689 5690 5690 5690
5741 5752 5763 5771 5777 5783 5785 5782 5778 5771 5764 5756 5748 5740 5734 5731 5732 5732 5731 5731 5730 5728 5726 5725 5723 5720 5718 5715 5711 5708 5704 5699 5693 5690 5689 5687 5685 5680 5679 5682 5685 5686 5686
5728 5739 5750 5759 5766 5771 5772 5769 5765 5758 5753 5748 5742 5733 5728 5727 5727 5728 5726 5725 5725 5724 5723 5721 5719 5717 5714 5712 5709 5706 5702 5698 5693 5689 5685 5682 5680 5680 5677 5675 5678 5681 5683
5716 5726 5736 5745 5750 5753 5755 5754 5751 5745 5741 5738 5733 5726 5722 5721 5721 5721 5720 5720 5719 5719 5719 5717 5715 5713 5710 5708 5705 5703 5700 5697 5693 5689 5685 5681 5677 5676 5675 5674 5674 5676 5679
5703 5711 5718 5724 5729 5733 5736 5737 5736 5731 5728 5725 5722 5719 5717 5716 5716 5716 5715 5714 5714 5713 5713 5713 5711 5709 5707 5704 5701 5699 5696 5694 5690 5687 5685 5682 5681 5679 5677 5674 5673 5672 5675
5692 5698 5704 5708 5712 5717 5720 5721 5720 5718 5716 5712 5711 5712 5711 5711 5711 5711 5711 5710 5709 5709 5709 5708 5706 5705 5702 5700 5697 5694 5693 5690 5687 5685 5682 5680 5679 5677 5677 5675 5671 5668 5669
5682 5688 5694 5698 5701 5704 5706 5708 5708 5706 5705 5704 5705 5706 5707 5707 5707 5706 5707 5706 5705 5704 5703 5703 5701 5699 5697 5694 5692 5690 5688 5687 5684 5682 5680 5677 5676 5675 5675 5674 5674 5669 5665
5674 5680 5685 5690 5693 5695 5696 5697 5697 5698 5698 5700 5701 5702 5702 5702 5701 5701 5700 5700 5699 5698 5697 5697 5695 5692 5691 5689 5686 5685 5684 5682 5680 5679 5676 5675 5673 5671 5670 5670 5671 5671 5669
5666 5672 5678 5682 5685 5689 5689 5689 5691 5693 5694 5696 5697 5698 5698 5698 5696 5695 5694 5694 5693 5692 5691 5690 5688 5686 5684 5683 5681 5679 5678 5676 5675 5675 5674 5672 5671 5668 5667 5667 5667 5667 5667
5661 5666 5671 5675 5678 5681 5683 5685 5688 5691 5691 5693 5694 5693 5694 5694 5692 5690 5689 5688 5687 5686 5685 5683 5682 5680 5678 5676 5674 5673 5671 5670 5670 5670 5669 5669 5668 5667 5666 5665 5665 5665 5665
5656 5660 5664 5668 5671 5675 5680 5683 5687 5688 5690 5691 5690 5690 5690 5689 5687 5686 5685 5684 5682 5680 5679 5677 5675 5674 5672 5670 5669 5667 5666 5665 5664 5664 5664 5664 5664 5663 5663 5663 5663 5663 5663
5649 5654 5657 5661 5665 5670 5676 5680 5683 5686 5687 5688 5688 5686 5685 5683 5682 5681 5680 5678 5676 5674 5673 5672 5671 5669 5667 5665 5663 5662 5660 5659 5659 5659 5659 5660 5660 5660 5660 5660 5660 5660 5659
5642 5647 5650 5655 5660 5665 5669 5673 5677 5681 5683 5683 5682 5681 5679 5679 5678 5677 5674 5673 5671 5670 5669 5668 5666 5665 5663 5661 5659 5658 5656 5655 5654 5654 5654 5655 5656 5656 5656 5656 5656 5656 5655
5636 5641 5646 5650 5654 5657 5661 5666 5670 5673 5675 5675 5674 5674 5673 5672 5672 5670 5669 5668 5667 5666 5665 5664 5662 5660 5660 5660 5658 5655 5653 5651 5649 5649 5649 5650 5651 5652 5652 5652 5652 5652 5651
5632 5637 5640 5644 5647 5651 5655 5658 5661 5664 5666 5666 5666 5666 5665 5665 5664 5663 5662 5662 5660 5660 5659 5659 5658 5657 5656 5656 5655 5653 5650 5647 5645 5644 5644 5645 5646 5646 5646 5646 5647 5647 5648
5631 5634 5638 5641 5644 5647 5650 5652 5654 5655 5656 5656 5656 5656 5656 5655 5654 5655 5654 5654 5654 5653 5653 5652 5652 5652 5652 5652 5652 5650 5646 5643 5642 5641 5640 5639 5640 5641 5640 5640 5640 5641 5642
5633 5636 5639 5641 5642 5644 5645 5647 5647 5647 5648 5647 5647 5647 5646 5646 5646 5646 5646 5647 5647 5646 5646 5646 5646 5646 5646 5647 5647 5646 5642 5639 5637 5637 5636 5635 5635 5636 5636 5635 5634 5635 5637
5636 5638 5640 5641 5642 5642 5643 5643 5642 5641 5640 5639 5639 5639 5638 5638 5638 5637 5637 5638 5638 5638 5638 5638 5638 5638 5639 5641 5641 5641 5637 5634 5632 5632 5632 5632 5632 5632 5632 5631 5630 5630 5632
5639 5641 5641 5641 5641 5641 5640 5638 5637 5635 5634 5634 5633 5631 5630 5630 5629 5628 5628 5629 5629 5630 5630 5630 5630 5630 5631 5632 5634 5633 5630 5628 5626 5625 5626 5626 5628 5628 5628 5627 5626 5627 5627
5640 5641 5640 5640 5639 5639 5637 5634 5632 5631 5630 5628 5626 5624 5622 5622 5621 5619 5619 5619 5620 5620 5620 5620 5620 5620 5621 5622 5624 5625 5624 5622 5620 5619 5619 5619 5621 5621 5622 5621 5622 5622 5622
5639 5640 5639 5638 5638 5637 5635 5632 5630 5628 5625 5622 5619 5616 5614 5612 5611 5611 5610 5610 5610 5610 5610 5610 5610 5610 5611 5612 5614 5615 5615 5614 5613 5612 5612 5613 5613 5613 5614 5614 5615 5615 5614
5639 5639 5639 5638 5638 5637 5635 5632 5629 5626 5622 5618 5614 5611 5608 5606 5605 5604 5603 5603 5602 5602 5602 5602 5602 5602 5602 5603 5603 5604 5604 5605 5604 5604 5604 5605 5605 5605 5605 5606 5607 5607 5607
5639 5639 5638 5638 5638 5638 5635 5632 5629 5625 5620 5616 5612 5609 5605 5602 5600 5599 5597 5596 5595 5595 5595 5595 5595 5595 5595 5595 5595 5596 5596 5596 5596 5596 5596 5596 5596 5596 5597 5598 5599 5599 5600
5640 5641 5641 5640 5640 5639 5637 5634 5630 5625 5621 5616 5612 5608 5605 5602 5599 5597 5595 5593 5592 5592 5591 5590 5590 5590 5590 5591 5591 5592 5592 5591 5591 5590 5588 5588 5588 5588 5589 5590 5591 5592 5592